| time (UTC) | temp F | wind direction | speed knots | gust knots | rain 1hr in | rain 24hr in | rain mn in | humidity % | barometer mb |
| 20260505093416 | 63 | 229 | 1.7 | 2.6 | 0.00 | 0.00 | 0.00 | 65 | 1012.4 |
| 20260505092914 | 63 | 146 | 0.9 | 2.6 | 0.00 | 0.00 | 0.00 | 65 | 1012.2 |
| 20260505092412 | 64 | 160 | 0.0 | 1.7 | 0.00 | 0.00 | 0.00 | 64 | 1012.1 |
| 20260505091909 | 64 | 43 | 0.0 | 1.7 | 0.00 | 0.00 | 0.00 | 63 | 1012.1 |
| 20260505091406 | 64 | 147 | 0.0 | 2.6 | 0.00 | 0.00 | 0.00 | 63 | 1012.1 |
| 20260505090904 | 63 | 176 | 1.7 | 3.5 | 0.00 | 0.00 | 0.00 | 65 | 1012.2 |
| 20260505090402 | 63 | 225 | 0.9 | 3.5 | 0.00 | 0.00 | 0.00 | 65 | 1011.9 |
| 20260505085859 | 63 | 174 | 1.7 | 3.5 | 0.00 | 0.00 | 0.00 | 65 | 1012.0 |
| 20260505085357 | 63 | 246 | 2.6 | 4.3 | 0.00 | 0.00 | 0.00 | 65 | 1012.0 |
| 20260505084855 | 63 | 212 | 1.7 | 3.5 | 0.00 | 0.00 | 0.00 | 64 | 1011.7 |
| 20260505084353 | 63 | 180 | 0.0 | 2.6 | 0.00 | 0.00 | 0.00 | 64 | 1011.5 |
| 20260505083850 | 63 | 214 | 0.9 | 3.5 | 0.00 | 0.00 | 0.00 | 65 | 1011.9 |
| 20260505083348 | 62 | 211 | 0.9 | 2.6 | 0.00 | 0.00 | 0.00 | 66 | 1011.9 |
| 20260505082844 | 62 | 148 | 0.9 | 1.7 | 0.00 | 0.00 | 0.00 | 66 | 1011.9 |
| 20260505082340 | 62 | 180 | 0.0 | 2.6 | 0.00 | 0.00 | 0.00 | 67 | 1012.1 |
| 20260505081837 | 62 | 226 | 0.0 | 1.7 | 0.00 | 0.00 | 0.00 | 67 | 1012.0 |
| 20260505081333 | 62 | 181 | 0.9 | 2.6 | 0.00 | 0.00 | 0.00 | 67 | 1012.2 |
| 20260505080830 | 62 | 263 | 0.0 | 1.7 | 0.00 | 0.00 | 0.00 | 67 | 1012.2 |
| 20260505080326 | 62 | 212 | 1.7 | 2.6 | 0.00 | 0.00 | 0.00 | 67 | 1012.0 |
| 20260505075822 | 62 | 277 | 1.7 | 2.6 | 0.00 | 0.00 | 0.00 | 67 | 1012.1 |
| 20260505075319 | 62 | 192 | 0.0 | 1.7 | 0.00 | 0.00 | 0.00 | 67 | 1012.0 |
| 20260505074816 | 62 | 201 | 0.9 | 2.6 | 0.00 | 0.00 | 0.00 | 67 | 1012.0 |
| 20260505074313 | 62 | 251 | 0.9 | 1.7 | 0.00 | 0.00 | 0.00 | 67 | 1012.1 |
| 20260505073811 | 62 | 166 | 0.9 | 1.7 | 0.00 | 0.00 | 0.00 | 66 | 1012.2 |
| 20260505073309 | 62 | 128 | 0.9 | 1.7 | 0.00 | 0.00 | 0.00 | 66 | 1012.2 |
| 20260505072805 | 62 | 238 | 0.0 | 4.3 | 0.00 | 0.00 | 0.00 | 66 | 1011.9 |
| 20260505072301 | 62 | 188 | 0.0 | 1.7 | 0.00 | 0.00 | 0.00 | 67 | 1012.0 |
| 20260505071757 | 62 | 222 | 1.7 | 2.6 | 0.00 | 0.00 | 0.00 | 67 | 1012.0 |
| 20260505071254 | 61 | 198 | 0.0 | 1.7 | 0.00 | 0.00 | 0.00 | 67 | 1011.9 |
| 20260505070752 | 61 | 187 | 0.0 | 1.7 | 0.00 | 0.00 | 0.00 | 68 | 1011.9 |
| 20260505070248 | 61 | 168 | 0.0 | 1.7 | 0.00 | 0.00 | 0.00 | 68 | 1011.8 |
| 20260505065743 | 61 | 180 | 0.0 | 1.7 | 0.00 | 0.00 | 0.00 | 67 | 1011.9 |
| 20260505065240 | 61 | 219 | 0.0 | 2.6 | 0.00 | 0.00 | 0.00 | 67 | 1012.0 |
| 20260505064737 | 61 | 228 | 1.7 | 1.7 | 0.00 | 0.00 | 0.00 | 66 | 1011.8 |
| 20260505064235 | 61 | 189 | 0.0 | 1.7 | 0.00 | 0.00 | 0.00 | 66 | 1011.9 |
| 20260505063732 | 61 | 268 | 1.7 | 1.7 | 0.00 | 0.00 | 0.00 | 66 | 1011.9 |
| 20260505063228 | 61 | 185 | 0.0 | 1.7 | 0.00 | 0.00 | 0.00 | 65 | 1011.9 |
| 20260505062725 | 62 | 113 | 0.0 | 2.6 | 0.00 | 0.00 | 0.00 | 64 | 1012.0 |
| 20260505062223 | 62 | 209 | 0.0 | 2.6 | 0.00 | 0.00 | 0.00 | 64 | 1011.8 |
| 20260505061719 | 62 | 178 | 0.9 | 1.7 | 0.00 | 0.00 | 0.00 | 63 | 1012.0 |
| 20260505061217 | 62 | 25 | 1.7 | 1.7 | 0.00 | 0.00 | 0.00 | 63 | 1012.1 |
| 20260505060715 | 62 | 275 | 1.7 | 1.7 | 0.00 | 0.00 | 0.00 | 63 | 1012.0 |
| 20260505060211 | 62 | 163 | 0.9 | 1.7 | 0.00 | 0.00 | 0.00 | 64 | 1011.9 |
| 20260505055707 | 62 | 160 | 0.0 | 1.7 | 0.00 | 0.00 | 0.00 | 64 | 1012.2 |
| 20260505055203 | 62 | 145 | 0.0 | 1.7 | 0.00 | 0.00 | 0.00 | 63 | 1012.1 |
| 20260505054701 | 62 | 147 | 0.0 | 0.9 | 0.00 | 0.00 | 0.00 | 63 | 1012.2 |
| 20260505054159 | 62 | 205 | 0.0 | 1.7 | 0.00 | 0.00 | 0.00 | 62 | 1012.1 |
| 20260505053656 | 62 | 208 | 0.0 | 1.7 | 0.00 | 0.00 | 0.00 | 62 | 1012.1 |
| 20260505053153 | 62 | 154 | 0.0 | 1.7 | 0.00 | 0.00 | 0.00 | 61 | 1012.2 |
| 20260505052649 | 62 | 135 | 0.0 | 0.9 | 0.00 | 0.00 | 0.00 | 61 | 1012.1 |
| 20260505052147 | 63 | 175 | 1.7 | 1.7 | 0.00 | 0.00 | 0.00 | 60 | 1012.0 |
| 20260505051643 | 63 | 227 | 0.9 | 1.7 | 0.00 | 0.00 | 0.00 | 60 | 1012.1 |
| 20260505051142 | 63 | 244 | 1.7 | 1.7 | 0.00 | 0.00 | 0.00 | 60 | 1012.1 |
| 20260505050639 | 62 | 226 | 1.7 | 1.7 | 0.00 | 0.00 | 0.00 | 61 | 1012.1 |
| 20260505050138 | 62 | 47 | 0.9 | 1.7 | 0.00 | 0.00 | 0.00 | 61 | 1012.1 |
| 20260505041607 | 62 | 89 | 0.0 | 0.9 | 0.00 | 0.00 | 0.00 | 61 | 1012.0 |
| 20260505041104 | 62 | 155 | 1.7 | 2.6 | 0.00 | 0.00 | 0.00 | 60 | 1012.1 |
| 20260505040602 | 62 | 63 | 0.0 | 2.6 | 0.00 | 0.00 | 0.00 | 60 | 1012.1 |
| 20260505040059 | 63 | 210 | 0.0 | 1.7 | 0.00 | 0.00 | 0.00 | 59 | 1012.1 |
| 20260505035555 | 62 | 191 | 0.9 | 2.6 | 0.00 | 0.00 | 0.00 | 59 | 1012.2 |
| 20260505035051 | 62 | 84 | 1.7 | 2.6 | 0.00 | 0.00 | 0.00 | 60 | 1012.2 |
| 20260505034548 | 62 | 155 | 0.0 | 1.7 | 0.00 | 0.00 | 0.00 | 61 | 1012.3 |
| 20260505034045 | 62 | 94 | 0.0 | 1.7 | 0.00 | 0.00 | 0.00 | 61 | 1012.2 |
| 20260505033542 | 62 | 181 | 0.9 | 1.7 | 0.00 | 0.00 | 0.00 | 61 | 1011.9 |
| 20260505033040 | 62 | 210 | 0.9 | 1.7 | 0.00 | 0.00 | 0.00 | 60 | 1012.0 |
| 20260505032538 | 63 | 144 | 1.7 | 2.6 | 0.00 | 0.00 | 0.00 | 60 | 1012.0 |
| 20260505032034 | 62 | 187 | 0.0 | 1.7 | 0.00 | 0.00 | 0.00 | 60 | 1012.1 |
| 20260505031531 | 62 | 172 | 0.0 | 1.7 | 0.00 | 0.00 | 0.00 | 60 | 1012.0 |
| 20260505031027 | 62 | 103 | 0.9 | 1.7 | 0.00 | 0.00 | 0.00 | 60 | 1012.0 |
| 20260505030525 | 62 | 153 | 0.9 | 1.7 | 0.00 | 0.00 | 0.00 | 60 | 1012.2 |
| 20260505030021 | 63 | 160 | 0.9 | 1.7 | 0.00 | 0.00 | 0.00 | 59 | 1012.3 |
| 20260505025516 | 63 | 124 | 0.0 | 0.9 | 0.00 | 0.00 | 0.00 | 58 | 1012.2 |
| 20260505025016 | 62 | 242 | 1.7 | 3.5 | 0.00 | 0.00 | 0.00 | 58 | 1012.2 |
| 20260505024512 | 62 | 174 | 0.9 | 1.7 | 0.00 | 0.00 | 0.00 | 57 | 1012.3 |
| 20260505024009 | 62 | 150 | 0.0 | 1.7 | 0.00 | 0.00 | 0.00 | 57 | 1012.4 |
| 20260505023506 | 62 | 143 | 0.9 | 2.6 | 0.00 | 0.00 | 0.00 | 55 | 1012.4 |
| 20260505023004 | 62 | 144 | 1.7 | 1.7 | 0.00 | 0.00 | 0.00 | 55 | 1012.4 |
| 20260505022501 | 62 | 21 | 0.0 | 1.7 | 0.00 | 0.00 | 0.00 | 53 | 1012.2 |
| 20260505021958 | 63 | 160 | 1.7 | 1.7 | 0.00 | 0.00 | 0.00 | 52 | 1012.4 |
| 20260505021455 | 63 | 204 | 1.7 | 1.7 | 0.00 | 0.00 | 0.00 | 51 | 1012.3 |
| 20260505020950 | 63 | 212 | 0.9 | 1.7 | 0.00 | 0.00 | 0.00 | 50 | 1012.2 |
| 20260505020445 | 63 | 44 | 0.0 | 1.7 | 0.00 | 0.00 | 0.00 | 49 | 1012.3 |
| 20260505015943 | 63 | 108 | 1.7 | 1.7 | 0.00 | 0.00 | 0.00 | 50 | 1012.4 |
| 20260505015440 | 63 | 132 | 0.9 | 2.6 | 0.00 | 0.00 | 0.00 | 48 | 1012.3 |
| 20260505014937 | 63 | 173 | 0.0 | 1.7 | 0.00 | 0.00 | 0.00 | 47 | 1012.4 |
| 20260505014434 | 64 | 119 | 0.9 | 1.7 | 0.00 | 0.00 | 0.00 | 47 | 1012.3 |
| 20260505013931 | 63 | 197 | 1.7 | 1.7 | 0.00 | 0.00 | 0.00 | 47 | 1012.4 |
| 20260505013428 | 64 | 139 | 0.0 | 1.7 | 0.00 | 0.00 | 0.00 | 47 | 1012.3 |
| 20260505012926 | 64 | 163 | 0.0 | 1.7 | 0.00 | 0.00 | 0.00 | 46 | 1012.2 |
| 20260505012424 | 64 | 139 | 0.9 | 1.7 | 0.00 | 0.00 | 0.00 | 46 | 1012.2 |
| 20260505011920 | 64 | 200 | 0.0 | 1.7 | 0.00 | 0.00 | 0.00 | 46 | 1012.2 |
| 20260505011416 | 64 | 123 | 1.7 | 1.7 | 0.00 | 0.00 | 0.00 | 46 | 1012.1 |
| 20260505010913 | 64 | 303 | 0.0 | 1.7 | 0.00 | 0.00 | 0.00 | 45 | 1012.2 |
| 20260505010409 | 65 | 137 | 0.0 | 1.7 | 0.00 | 0.00 | 0.00 | 45 | 1012.1 |
| 20260505005904 | 65 | 135 | 0.0 | 0.9 | 0.00 | 0.00 | 0.00 | 45 | 1012.2 |
| 20260505005402 | 65 | 182 | 0.9 | 1.7 | 0.00 | 0.00 | 0.00 | 44 | 1011.9 |
| 20260505004859 | 65 | 160 | 0.0 | 2.6 | 0.00 | 0.00 | 0.00 | 44 | 1011.8 |
| 20260505004355 | 65 | 224 | 0.0 | 1.7 | 0.00 | 0.00 | 0.00 | 43 | 1011.8 |
| 20260505003853 | 65 | 154 | 0.9 | 0.9 | 0.00 | 0.00 | 0.00 | 43 | 1011.7 |
| 20260505003350 | 65 | 172 | 0.0 | 0.9 | 0.00 | 0.00 | 0.00 | 42 | 1011.7 |
| 20260505002846 | 66 | 155 | 0.0 | 0.9 | 0.00 | 0.00 | 0.00 | 43 | 1011.6 |
| 20260505002343 | 66 | 176 | 0.0 | 0.9 | 0.00 | 0.00 | 0.00 | 42 | 1011.8 |
| 20260505001841 | 66 | 151 | 0.0 | 1.7 | 0.00 | 0.00 | 0.00 | 40 | 1011.5 |
| 20260505001338 | 67 | 150 | 0.0 | 1.7 | 0.00 | 0.00 | 0.00 | 41 | 1011.5 |
| 20260505000835 | 67 | 174 | 0.9 | 0.9 | 0.00 | 0.00 | 0.00 | 40 | 1011.4 |
| 20260505000333 | 68 | 135 | 0.0 | 1.7 | 0.00 | 0.00 | 0.00 | 40 | 1011.7 |
| 20260504235829 | 68 | 188 | 0.0 | 0.9 | 0.00 | 0.00 | 0.00 | 40 | 1011.4 |
| 20260504235327 | 68 | 129 | 0.0 | 0.9 | 0.00 | 0.00 | 0.00 | 40 | 1011.3 |
| 20260504234823 | 69 | 212 | 0.0 | 0.9 | 0.00 | 0.00 | 0.00 | 38 | 1011.3 |
| 20260504234321 | 69 | 146 | 0.0 | 1.7 | 0.00 | 0.00 | 0.00 | 37 | 1011.5 |
| 20260504233817 | 70 | 248 | 1.7 | 1.7 | 0.00 | 0.00 | 0.00 | 37 | 1011.3 |
| 20260504233313 | 70 | 279 | 0.9 | 1.7 | 0.00 | 0.00 | 0.00 | 36 | 1011.3 |
| 20260504232810 | 71 | 215 | 0.9 | 2.6 | 0.00 | 0.00 | 0.00 | 35 | 1011.3 |
| 20260504232307 | 71 | 172 | 1.7 | 3.5 | 0.00 | 0.00 | 0.00 | 34 | 1011.4 |
| 20260504231804 | 71 | 46 | 0.0 | 2.6 | 0.00 | 0.00 | 0.00 | 33 | 1011.2 |
| 20260504231300 | 71 | 226 | 1.7 | 5.2 | 0.00 | 0.00 | 0.00 | 33 | 1011.3 |
| 20260504230756 | 72 | 269 | 0.9 | 1.7 | 0.00 | 0.00 | 0.00 | 33 | 1011.2 |
| 20260504230254 | 72 | 233 | 2.6 | 4.3 | 0.00 | 0.00 | 0.00 | 32 | 1011.1 |
| 20260504225753 | 72 | 239 | 1.7 | 3.5 | 0.00 | 0.00 | 0.00 | 32 | 1011.5 |
| 20260504225249 | 72 | 256 | 1.7 | 5.2 | 0.00 | 0.00 | 0.00 | 31 | 1011.1 |
| 20260504224746 | 72 | 301 | 0.9 | 3.5 | 0.00 | 0.00 | 0.00 | 31 | 1011.1 |
| 20260504224243 | 73 | 207 | 1.7 | 3.5 | 0.00 | 0.00 | 0.00 | 32 | 1011.2 |
| 20260504223740 | 73 | 234 | 1.7 | 7.0 | 0.00 | 0.00 | 0.00 | 30 | 1011.2 |
| 20260504223235 | 73 | 246 | 2.6 | 5.2 | 0.00 | 0.00 | 0.00 | 31 | 1011.2 |
| 20260504222732 | 73 | 217 | 1.7 | 6.1 | 0.00 | 0.00 | 0.00 | 29 | 1011.3 |
| 20260504222229 | 73 | 220 | 1.7 | 5.2 | 0.00 | 0.00 | 0.00 | 30 | 1011.2 |
| 20260504221726 | 74 | 265 | 4.3 | 4.3 | 0.00 | 0.00 | 0.00 | 29 | 1011.3 |
| 20260504221218 | 75 | 254 | 4.3 | 8.7 | 0.00 | 0.00 | 0.00 | 28 | 1011.4 |
| 20260504220714 | 76 | 237 | 3.5 | 7.8 | 0.00 | 0.00 | 0.00 | 27 | 1011.3 |
| 20260504220212 | 76 | 260 | 1.7 | 4.3 | 0.00 | 0.00 | 0.00 | 28 | 1011.4 |
| 20260504215708 | 77 | 251 | 1.7 | 4.3 | 0.00 | 0.00 | 0.00 | 27 | 1011.3 |
| 20260504215206 | 77 | 265 | 2.6 | 3.5 | 0.00 | 0.00 | 0.00 | 27 | 1011.4 |
| 20260504214701 | 77 | 283 | 2.6 | 4.3 | 0.00 | 0.00 | 0.00 | 28 | 1011.4 |
| 20260504214158 | 76 | 248 | 1.7 | 2.6 | 0.00 | 0.00 | 0.00 | 28 | 1011.4 |
| 20260504213655 | 76 | 217 | 0.0 | 7.8 | 0.00 | 0.00 | 0.00 | 29 | 1011.3 |
| 20260504213151 | 77 | 241 | 1.7 | 9.6 | 0.00 | 0.00 | 0.00 | 28 | 1011.3 |
| 20260504212648 | 76 | 262 | 3.5 | 6.1 | 0.00 | 0.00 | 0.00 | 27 | 1011.4 |
| 20260504212144 | 77 | 251 | 5.2 | 9.6 | 0.00 | 0.00 | 0.00 | 27 | 1011.5 |
| 20260504211642 | 78 | 302 | 3.5 | 4.3 | 0.00 | 0.00 | 0.00 | 27 | 1011.4 |
| 20260504211138 | 77 | 235 | 1.7 | 2.6 | 0.00 | 0.00 | 0.00 | 27 | 1011.4 |
| 20260504210636 | 76 | 232 | 4.3 | 4.3 | 0.00 | 0.00 | 0.00 | 27 | 1011.5 |
| 20260504210132 | 76 | 245 | 4.3 | 4.3 | 0.00 | 0.00 | 0.00 | 27 | 1011.3 |
| 20260504205630 | 76 | 238 | 4.3 | 5.2 | 0.00 | 0.00 | 0.00 | 27 | 1011.4 |
| 20260504205127 | 76 | 235 | 7.0 | 8.7 | 0.00 | 0.00 | 0.00 | 27 | 1011.4 |
| 20260504204626 | 76 | 250 | 1.7 | 5.2 | 0.00 | 0.00 | 0.00 | 28 | 1011.5 |
| 20260504204124 | 75 | 238 | 2.6 | 7.0 | 0.00 | 0.00 | 0.00 | 28 | 1011.4 |
| 20260504203622 | 75 | 186 | 3.5 | 5.2 | 0.00 | 0.00 | 0.00 | 27 | 1011.4 |
| 20260504203119 | 75 | 201 | 2.6 | 6.1 | 0.00 | 0.00 | 0.00 | 28 | 1011.1 |
| 20260504202614 | 75 | 160 | 2.6 | 9.6 | 0.00 | 0.00 | 0.00 | 28 | 1011.4 |
| 20260504202111 | 76 | 269 | 1.7 | 6.1 | 0.00 | 0.00 | 0.00 | 28 | 1011.4 |
| 20260504201608 | 76 | 181 | 3.5 | 5.2 | 0.00 | 0.00 | 0.00 | 27 | 1011.5 |
| 20260504201106 | 75 | 251 | 4.3 | 5.2 | 0.00 | 0.00 | 0.00 | 27 | 1011.6 |
| 20260504200602 | 75 | 266 | 4.3 | 6.1 | 0.00 | 0.00 | 0.00 | 27 | 1011.4 |
| 20260504200059 | 75 | 221 | 4.3 | 6.1 | 0.00 | 0.00 | 0.00 | 27 | 1011.4 |
| 20260504195555 | 75 | 213 | 3.5 | 5.2 | 0.00 | 0.00 | 0.00 | 27 | 1011.4 |
| 20260504195051 | 75 | 276 | 4.3 | 5.2 | 0.00 | 0.00 | 0.00 | 28 | 1011.6 |
| 20260504194548 | 75 | 218 | 4.3 | 5.2 | 0.00 | 0.00 | 0.00 | 28 | 1011.8 |
| 20260504194043 | 75 | 226 | 0.9 | 7.8 | 0.00 | 0.00 | 0.00 | 28 | 1011.9 |
| 20260504193540 | 74 | 268 | 2.6 | 7.8 | 0.00 | 0.00 | 0.00 | 28 | 1011.9 |
| 20260504193039 | 74 | 282 | 2.6 | 5.2 | 0.00 | 0.00 | 0.00 | 29 | 1012.1 |
| 20260504192537 | 73 | 247 | 4.3 | 7.0 | 0.00 | 0.00 | 0.00 | 29 | 1012.0 |
| 20260504192035 | 73 | 251 | 2.6 | 4.3 | 0.00 | 0.00 | 0.00 | 30 | 1012.0 |
| 20260504191533 | 73 | 214 | 0.9 | 5.2 | 0.00 | 0.00 | 0.00 | 29 | 1012.2 |
| 20260504191028 | 73 | 219 | 1.7 | 5.2 | 0.00 | 0.00 | 0.00 | 33 | 1012.2 |
| 20260504190525 | 73 | 211 | 4.3 | 7.0 | 0.00 | 0.00 | 0.00 | 29 | 1012.2 |
| 20260504190021 | 73 | 231 | 4.3 | 4.3 | 0.00 | 0.00 | 0.00 | 28 | 1012.3 |
| 20260504185518 | 73 | 286 | 4.3 | 6.1 | 0.00 | 0.00 | 0.00 | 30 | 1012.3 |
| 20260504185015 | 72 | 311 | 0.9 | 4.3 | 0.00 | 0.00 | 0.00 | 31 | 1012.5 |
| 20260504184510 | 73 | 252 | 2.6 | 7.0 | 0.00 | 0.00 | 0.00 | 30 | 1012.6 |
| 20260504184006 | 72 | 234 | 4.3 | 5.2 | 0.00 | 0.00 | 0.00 | 29 | 1012.6 |
| 20260504183503 | 72 | 245 | 2.6 | 5.2 | 0.00 | 0.00 | 0.00 | 29 | 1012.8 |
| 20260504183002 | 72 | 268 | 1.7 | 6.1 | 0.00 | 0.00 | 0.00 | 30 | 1013.0 |
| 20260504182458 | 72 | 210 | 0.9 | 5.2 | 0.00 | 0.00 | 0.00 | 30 | 1012.8 |
| 20260504181955 | 72 | 235 | 3.5 | 6.1 | 0.00 | 0.00 | 0.00 | 30 | 1012.8 |
| 20260504181452 | 72 | 211 | 1.7 | 5.2 | 0.00 | 0.00 | 0.00 | 29 | 1013.0 |
| 20260504180951 | 71 | 287 | 2.6 | 5.2 | 0.00 | 0.00 | 0.00 | 30 | 1013.0 |
| 20260504180449 | 71 | 282 | 2.6 | 5.2 | 0.00 | 0.00 | 0.00 | 30 | 1013.2 |
| 20260504175947 | 72 | 254 | 2.6 | 4.3 | 0.00 | 0.00 | 0.00 | 29 | 1013.2 |
| 20260504175444 | 72 | 248 | 2.6 | 5.2 | 0.00 | 0.00 | 0.00 | 29 | 1013.4 |
| 20260504174942 | 72 | 219 | 2.6 | 4.3 | 0.00 | 0.00 | 0.00 | 31 | 1013.4 |
| 20260504174439 | 71 | 250 | 0.9 | 3.5 | 0.00 | 0.00 | 0.00 | 32 | 1013.3 |
| 20260504173936 | 71 | 222 | 1.7 | 6.1 | 0.00 | 0.00 | 0.00 | 29 | 1013.5 |
| 20260504173432 | 71 | 233 | 2.6 | 2.6 | 0.00 | 0.00 | 0.00 | 32 | 1013.6 |
| 20260504172930 | 71 | 242 | 3.5 | 7.8 | 0.00 | 0.00 | 0.00 | 29 | 1013.7 |
| 20260504172426 | 70 | 260 | 4.3 | 4.3 | 0.00 | 0.00 | 0.00 | 30 | 1013.7 |
| 20260504171923 | 71 | 268 | 1.7 | 5.2 | 0.00 | 0.00 | 0.00 | 29 | 1013.8 |
| 20260504171420 | 70 | 231 | 1.7 | 5.2 | 0.00 | 0.00 | 0.00 | 31 | 1013.9 |
| 20260504170917 | 70 | 334 | 2.6 | 7.0 | 0.00 | 0.00 | 0.00 | 29 | 1014.0 |
| 20260504170413 | 70 | 333 | 0.9 | 5.2 | 0.00 | 0.00 | 0.00 | 30 | 1013.9 |
| 20260504160332 | 68 | 245 | 2.6 | 6.1 | 0.00 | 0.00 | 0.00 | 33 | 1014.8 |
| 20260504150756 | 66 | 169 | 1.7 | 5.2 | 0.00 | 0.00 | 0.00 | 40 | 1015.1 |
| 20260504150253 | 66 | 253 | 4.3 | 4.3 | 0.00 | 0.00 | 0.00 | 38 | 1015.4 |
| 20260504141223 | 64 | 253 | 1.7 | 2.6 | 0.00 | 0.00 | 0.00 | 48 | 1015.4 |
| 20260504140720 | 64 | 258 | 1.7 | 4.3 | 0.00 | 0.00 | 0.00 | 46 | 1015.6 |
| 20260504140215 | 64 | 263 | 2.6 | 2.6 | 0.00 | 0.00 | 0.00 | 48 | 1015.6 |
| 20260504130643 | 60 | 154 | 0.0 | 4.3 | 0.00 | 0.00 | 0.00 | 57 | 1016.1 |
| 20260504130139 | 59 | 268 | 1.7 | 5.2 | 0.00 | 0.00 | 0.00 | 56 | 1016.0 |
| 20260504120104 | 55 | 278 | 0.0 | 2.6 | 0.00 | 0.00 | 0.00 | 69 | 1016.3 |
| 20260504110531 | 49 | 152 | 1.7 | 1.7 | 0.00 | 0.00 | 0.00 | 78 | 1016.9 |
| 20260504100454 | 48 | 160 | 0.0 | 1.7 | 0.00 | 0.00 | 0.00 | 75 | 1016.8 |